This demonstration page uses our WeatherBlox Daily Observations layout. Learn more.

Left ArrowRight Arrow

39.95238, -75.16362

Hourly Observations for August 26, 2016

Temp ( °F °C ) Dew Point ( °F °C ) Humidity (%) Winds ( mph kmh ) Pressure ( in mb ) Visibility ( mi km ) Precip ( " mm )
12:54 am 00:54 Clear 78 25.6 69 20.6 74 74 SSW 9 15 30.01 1016 10 16 0.00 0.00
1:54 am 01:54 Clear 77 25 70 21.1 79 79 SSW 8 13 30.00 1016 10 16 0.00 0.00
2:54 am 02:54 Mostly Clear 76 24.4 69 20.6 79 79 SSW 8 13 30.01 1016 10 16 0.00 0.00
3:54 am 03:54 Mostly Clear 76 24.4 70 21.1 82 82 S 7 11 30.00 1016 10 16 0.00 0.00
4:54 am 04:54 Mostly Cloudy 75 23.9 70 21.1 84 84 SSW 9 15 30.00 1016 10 16 0.00 0.00
5:54 am 05:54 Mostly Cloudy 76 24.4 72 22.2 88 88 SW 9 15 30.01 1016 10 16 0.00 0.00
6:54 am 06:54 Mostly Cloudy 77 25 72 22.2 85 85 SSW 12 19 30.01 1016 10 16 0.00 0.00
7:54 am 07:54 Mostly Cloudy 77 25 73 22.8 88 88 WSW 8 13 30.02 1017 10 16 0.00 0.00
8:54 am 08:54 Partly Cloudy 82 27.8 73 22.8 74 74 W 7 11 30.02 1017 10 16 0.00 0.00
9:54 am 09:54 Partly Cloudy 86 30 70 21.1 59 59 NW 13 20 30.02 1017 10 16 0.00 0.00
10:54 am 10:54 Partly Cloudy 88 31.1 70 21.1 55 55 NW 13 20 30.01 1016 10 16 0.00 0.00
11:54 am 11:54 Mostly Sunny 90 32.2 67 19.4 47 47 NNW 12 19 30.01 1016 10 16 0.00 0.00
12:54 pm 12:54 Mostly Sunny 91 32.8 67 19.4 45 45 NW 10 17 30.01 1016 10 16 0.00 0.00
1:54 pm 13:54 Partly Cloudy 91 32.8 67 19.4 45 45 NW 14 22 30.01 1016 10 16 0.00 0.00
2:54 pm 14:54 Partly Cloudy 91 32.8 66 18.9 44 44 NNW 14 22 30.01 1016 10 16 0.00 0.00
3:54 pm 15:54 Partly Cloudy 92 33.3 64 17.8 40 40 NW 15 24 30.00 1016 10 16 0.00 0.00
4:54 pm 16:54 Partly Cloudy 92 33.3 63 17.2 38 38 W 13 20 30.00 1016 10 16 0.00 0.00
5:54 pm 17:54 Mostly Sunny 92 33.3 64 17.8 40 40 NW 15 24 30.00 1016 10 16 0.00 0.00
6:54 pm 18:54 Mostly Sunny 91 32.8 63 17.2 39 39 NW 14 22 30.01 1016 10 16 0.00 0.00
7:54 pm 19:54 Mostly Clear 89 31.7 64 17.8 43 43 NW 9 15 30.02 1017 10 16 0.00 0.00
8:54 pm 20:54 Clear 87 30.6 64 17.8 46 46 NW 9 15 30.04 1017 10 16 0.00 0.00
9:54 pm 21:54 Clear 84 28.9 65 18.3 53 53 NNW 7 11 30.06 1018 10 16 0.00 0.00
10:54 pm 22:54 Clear 82 27.8 65 18.3 56 56 NNW 7 11 30.07 1018 10 16 0.00 0.00
11:54 pm 23:54 Clear 81 27.2 65 18.3 58 58 NNW 6 9 30.09 1019 10 16 0.00 0.00

Powered by AerisWeather